This is the latest recevied weather packets stored in our database for station/object K5WNG. If no packets are shown the sender has not sent any weather packets the latest 10 day(s).
| Time | Temp. | Humidity | Pressure | Rain* | Wind** | Luminosity | Snow |
|---|---|---|---|---|---|---|---|
| 1778012117 | 29.44° C | 68% | 1007 hPa | 0 mm | - | 854 W/m² | - |
| 1778011817 | 29.44° C | 69% | 1007.1 hPa | 0 mm | - | 689 W/m² | - |
| 1778011519 | 30° C | 68% | 1007.2 hPa | 0 mm | - | 556 W/m² | - |
| 1778011220 | 30° C | 68% | 1007.2 hPa | 0 mm | - | 593 W/m² | - |
| 1778010917 | 30° C | 68% | 1007.3 hPa | 0 mm | - | 772 W/m² | - |
| 1778010616 | 29.44° C | 69% | 1007.4 hPa | 0 mm | - | 986 W/m² | - |
| 1778010316 | 29.44° C | 69% | 1007.5 hPa | 0 mm | - | 604 W/m² | - |
| 1778010017 | 28.89° C | 69% | 1007.6 hPa | 0 mm | - | 715 W/m² | - |
| 1778009720 | 28.89° C | 70% | 1007.6 hPa | 0 mm | - | 675 W/m² | - |
| 1778009417 | 28.33° C | 71% | 1007.6 hPa | 0 mm | - | 699 W/m² | - |
| 1778009118 | 28.33° C | 72% | 1007.6 hPa | 0 mm | - | 454 W/m² | - |
| 1778008816 | 28.33° C | 71% | 1007.6 hPa | 0 mm | - | 364 W/m² | - |
| 1778008519 | 28.33° C | 72% | 1007.7 hPa | 0 mm | - | 776 W/m² | - |
| 1778008216 | 28.33° C | 72% | 1007.6 hPa | 0 mm | - | 566 W/m² | - |
| 1778007919 | 27.78° C | 72% | 1007.7 hPa | 0 mm | - | 718 W/m² | - |
| 1778007620 | 27.78° C | 73% | 1007.7 hPa | 0 mm | - | 483 W/m² | - |
| 1778007319 | 27.78° C | 72% | 1007.8 hPa | 0 mm | - | 664 W/m² | - |
| 1778007020 | 27.78° C | 72% | 1007.8 hPa | 0 mm | - | 438 W/m² | - |
| 1778006717 | 27.22° C | 73% | 1007.9 hPa | 0 mm | - | 889 W/m² | - |
| 1778006416 | 26.67° C | 74% | 1008 hPa | 0.25 mm | - | 575 W/m² | - |
| 1778006120 | 26.67° C | 75% | 1008.1 hPa | 0.25 mm | - | 489 W/m² | - |
| 1778005821 | 26.67° C | 75% | 1008.2 hPa | 0.25 mm | - | 415 W/m² | - |
| 1778005520 | 26.11° C | 76% | 1008.3 hPa | 0.25 mm | - | 489 W/m² | - |
| 1778005217 | 26.11° C | 77% | 1008.3 hPa | 0.25 mm | - | 626 W/m² | - |
| 1778004920 | 26.11° C | 77% | 1008.3 hPa | 0.25 mm | - | 405 W/m² | - |
* Rain latest hour (hover to see other rain measurements)
** Current wind speed in m/s (hover to see current wind gust speed)